Home   Weather   Mendoza   Past weeks

Flag for Argentina Past Weather in Mendoza, Mendoza, Argentina — Yesterday and Last 2 Weeks

Now
88 °F

Passing clouds.


Feels Like: 88 °F
Forecast: 75 / 100 °F
Wind: 12 mph from Northeast

Location: Mendoza Aerodrome

Current Time: Jan 20, 2017 at 9:28:41 pm

Latest Report: Jan 20, 2017 at 9:00 pm


Visibility: 2 mi

Pressure: 29.89 "Hg (27.42 "Hg at 767m altitude)

Humidity: 40%

Dew Point: 61 °F

Location of MendozaLocation

Past Weather in Mendoza — Graph

°F

Mendoza Temperature Yesterday

Maximum temperature yesterday: 100 °F (at 7:00 pm)
Minimum temperature yesterday: 79 °F (at 5:00 am)
Average temperature yesterday: 88 °F

High & Low Weather Summary for the Past Weeks

 TemperatureHumidityPressure
High100 °F (Jan 19, 7:00 pm)83% (Jan 8, 7:00 am)30.04 "Hg (Jan 8, 7:00 am)
Low66 °F (Jan 6, 6:00 am)15% (Jan 16, 6:00 pm)29.56 "Hg (Jan 14, 7:00 pm)
Average84 °F38%29.83 "Hg
* Reported Jan 5 8:00 pm — Jan 20 8:00 pm, Mendoza, Weather by CustomWeather, © 2017

Note: Actual official high and low records may vary slightly from our data, if they occured in-between our weather recording intervals... More about our weather records

Advertising

Mendoza Weather History for the Previous 24 Hours

Scroll right to see more
 ConditionsComfort  
Time TempWeatherWind HumidityBarometerVisibility
8:00 pm
Fri, Jan 20
97 °FScattered clouds.2 mph28%29.83 "HgN/A
7:00 pm99 °FScattered clouds.3 mph25%29.86 "HgN/A
6:00 pm99 °FScattered clouds.5 mph24%29.86 "HgN/A
5:00 pm100 °FScattered clouds.5 mph25%29.86 "HgN/A
4:00 pm100 °FPassing clouds.6 mph22%29.89 "HgN/A
3:00 pm97 °FPassing clouds.5 mph22%29.92 "HgN/A
2:00 pm95 °FPassing clouds.7 mph22%29.95 "HgN/A
1:00 pm95 °FPassing clouds.7 mph20%29.98 "HgN/A
12:00 pm93 °FSunny.9 mph21%29.98 "Hg10 mi
11:00 am90 °FSunny.10 mph22%30.01 "Hg10 mi
10:00 am88 °FSunny.10 mph25%30.01 "Hg10 mi
9:00 am86 °FSunny.14 mph24%30.01 "Hg10 mi
8:00 am82 °FSunny.13 mph30%29.98 "Hg10 mi
7:00 am82 °FSunny.12 mph35%29.98 "Hg10 mi
6:00 am84 °FClear.13 mph35%29.95 "Hg10 mi
5:00 am86 °FClear.12 mph33%29.92 "Hg10 mi
4:00 am88 °FClear.13 mph31%29.92 "Hg10 mi
3:00 am86 °FClear.8 mph38%29.92 "Hg10 mi
2:00 am88 °FClear.9 mph35%29.95 "Hg10 mi
1:00 am84 °FClear.15 mph37%29.95 "Hg10 mi
12:00 am88 °FClear.7 mph31%29.92 "Hg10 mi
11:00 pm
Thu, Jan 19
88 °FClear.No wind35%29.89 "Hg10 mi
10:00 pm90 °FClear.2 mph31%29.86 "Hg10 mi
9:00 pm93 °FPassing clouds.No wind26%29.83 "HgN/A
Weather by CustomWeather, © 2017

See weather overviewHow to use our weather pages